| time (UTC) | temp F | wind direction | speed MPH | gust MPH | rain 1hr in | rain 24hr in | rain mn in | humidity % | barometer mb |
| 20260905220010 | 54 | 345 | 4.0 | 8.0 | 0.00 | 0.13 | 0.00 | 35 | 1020.7 |
| 20260905213007 | 55 | 20 | 4.0 | 9.0 | 0.00 | 0.13 | 0.13 | 34 | 1020.4 |
| 20260905211508 | 55 | 6 | 4.0 | 11.0 | 0.00 | 0.13 | 0.13 | 33 | 1020.1 |
| 20260905210008 | 55 | 301 | 4.0 | 11.0 | 0.00 | 0.13 | 0.13 | 33 | 1020.2 |
| 20260905204508 | 55 | 329 | 4.0 | 13.0 | 0.00 | 0.13 | 0.13 | 33 | 1020.1 |
| 20260905203008 | 56 | 326 | 3.0 | 9.0 | 0.00 | 0.13 | 0.13 | 34 | 1020.0 |
| 20260905201507 | 56 | 288 | 3.0 | 6.0 | 0.00 | 0.13 | 0.13 | 34 | 1019.9 |
| 20260905200007 | 56 | 279 | 2.0 | 5.0 | 0.00 | 0.13 | 0.13 | 34 | 1019.7 |
| 20260905194507 | 56 | 327 | 3.0 | 8.0 | 0.00 | 0.13 | 0.13 | 33 | 1019.7 |
| 20260905193007 | 56 | 330 | 3.0 | 8.0 | 0.00 | 0.13 | 0.13 | 33 | 1019.4 |
| 20260905191507 | 57 | 357 | 3.0 | 5.0 | 0.00 | 0.13 | 0.13 | 34 | 1019.7 |
| 20260905183007 | 57 | 357 | 3.0 | 8.0 | 0.00 | 0.13 | 0.13 | 34 | 1018.9 |
| 20260905181507 | 58 | 10 | 2.0 | 5.0 | 0.00 | 0.13 | 0.13 | 34 | 1019.0 |
| 20260905180007 | 58 | 9 | 2.0 | 5.0 | 0.00 | 0.13 | 0.13 | 34 | 1018.8 |
| 20260905171507 | 60 | 11 | 4.0 | 12.0 | 0.00 | 0.13 | 0.13 | 33 | 1018.1 |
| 20260905170006 | 61 | 6 | 3.0 | 7.0 | 0.00 | 0.13 | 0.13 | 34 | 1018.3 |
| 20260905164507 | 61 | 316 | 4.0 | 6.0 | 0.00 | 0.13 | 0.13 | 34 | 1017.8 |
| 20260905163007 | 61 | 240 | 3.0 | 8.0 | 0.00 | 0.13 | 0.13 | 34 | 1017.7 |
| 20260905161506 | 62 | 335 | 4.0 | 11.0 | 0.00 | 0.13 | 0.13 | 33 | 1017.8 |
| 20260905153007 | 63 | 72 | 5.0 | 12.0 | 0.00 | 0.13 | 0.13 | 29 | 1017.5 |
| 20260905151506 | 64 | 251 | 4.0 | 11.0 | 0.00 | 0.13 | 0.13 | 27 | 1017.5 |
| 20260905150007 | 64 | 327 | 5.0 | 11.0 | 0.00 | 0.13 | 0.13 | 28 | 1017.6 |
| 20260905144507 | 63 | 280 | 4.0 | 10.0 | 0.00 | 0.13 | 0.13 | 28 | 1017.5 |
| 20260905143007 | 64 | 290 | 8.0 | 21.0 | 0.00 | 0.13 | 0.13 | 27 | 1017.5 |
| 20260905140007 | 65 | 232 | 8.0 | 17.0 | 0.00 | 0.13 | 0.13 | 26 | 1017.7 |
| 20260905134506 | 66 | 254 | 6.0 | 14.0 | 0.00 | 0.13 | 0.13 | 25 | 1017.7 |
| 20260905133006 | 65 | 298 | 8.0 | 22.0 | 0.00 | 0.13 | 0.13 | 26 | 1017.6 |
| 20260905131506 | 64 | 284 | 9.0 | 17.0 | 0.00 | 0.13 | 0.13 | 26 | 1017.8 |
| 20260905130006 | 65 | 89 | 5.0 | 13.0 | 0.00 | 0.13 | 0.13 | 26 | 1017.9 |
| 20260905124506 | 64 | 270 | 7.0 | 17.0 | 0.00 | 0.13 | 0.13 | 26 | 1017.8 |
| 20260905123007 | 64 | 352 | 6.0 | 15.0 | 0.00 | 0.13 | 0.13 | 25 | 1017.8 |
| 20260905121506 | 64 | 302 | 5.0 | 12.0 | 0.00 | 0.13 | 0.13 | 27 | 1018.0 |
| 20260905120006 | 65 | 23 | 5.0 | 11.0 | 0.00 | 0.13 | 0.13 | 29 | 1017.7 |
| 20260905114506 | 64 | 76 | 5.0 | 11.0 | 0.00 | 0.13 | 0.13 | 29 | 1017.7 |
| 20260905113007 | 64 | 354 | 7.0 | 17.0 | 0.00 | 0.13 | 0.13 | 27 | 1017.9 |
| 20260905110006 | 62 | 276 | 5.0 | 15.0 | 0.00 | 0.13 | 0.13 | 31 | 1017.8 |
| 20260905104506 | 62 | 344 | 6.0 | 15.0 | 0.00 | 0.13 | 0.13 | 31 | 1017.7 |
| 20260905103006 | 61 | 250 | 8.0 | 15.0 | 0.00 | 0.13 | 0.13 | 34 | 1017.7 |
| 20260905101505 | 61 | 264 | 8.0 | 15.0 | 0.00 | 0.13 | 0.13 | 35 | 1017.8 |
| 20260905093005 | 58 | 261 | 4.0 | 11.0 | 0.01 | 0.13 | 0.13 | 45 | 1017.9 |
| 20260905091506 | 58 | 286 | 5.0 | 11.0 | 0.01 | 0.13 | 0.13 | 46 | 1017.9 |
| 20260905090005 | 57 | 305 | 5.0 | 10.0 | 0.01 | 0.13 | 0.13 | 51 | 1017.8 |
| 20260905084505 | 56 | 222 | 6.0 | 16.0 | 0.01 | 0.13 | 0.13 | 53 | 1017.5 |
| 20260905083006 | 55 | 297 | 4.0 | 8.0 | 0.00 | 0.12 | 0.12 | 61 | 1017.5 |
| 20260905081506 | 55 | 130 | 4.0 | 8.0 | 0.00 | 0.12 | 0.12 | 63 | 1017.6 |
| 20260905080006 | 54 | 35 | 4.0 | 9.0 | 0.00 | 0.12 | 0.12 | 64 | 1017.4 |
| 20260905073006 | 53 | 19 | 3.0 | 6.0 | 0.00 | 0.12 | 0.12 | 71 | 1017.0 |
| 20260905071505 | 53 | 243 | 3.0 | 6.0 | 0.00 | 0.12 | 0.12 | 75 | 1016.7 |
| 20260905070006 | 52 | 292 | 5.0 | 13.0 | 0.00 | 0.12 | 0.12 | 75 | 1016.9 |
| 20260905064505 | 51 | 292 | 5.0 | 10.0 | 0.00 | 0.12 | 0.12 | 75 | 1016.9 |
| 20260905063006 | 51 | 263 | 5.0 | 11.0 | 0.00 | 0.12 | 0.12 | 74 | 1017.0 |
| 20260905060005 | 51 | 252 | 4.0 | 8.0 | 0.05 | 0.12 | 0.12 | 71 | 1016.4 |
| 20260905054505 | 51 | 252 | 6.0 | 10.0 | 0.07 | 0.12 | 0.12 | 67 | 1015.5 |
| 20260905053005 | 51 | 284 | 4.0 | 8.0 | 0.08 | 0.12 | 0.12 | 65 | 1016.0 |
| 20260905051505 | 52 | 353 | 4.0 | 7.0 | 0.06 | 0.09 | 0.09 | 62 | 1016.0 |
| 20260905050005 | 53 | 304 | 4.0 | 11.0 | 0.04 | 0.07 | 0.07 | 58 | 1016.1 |
| 20260905044505 | 54 | 2 | 4.0 | 9.0 | 0.01 | 0.05 | 0.05 | 55 | 1016.3 |
| 20260905041505 | 54 | 312 | 3.0 | 8.0 | 0.01 | 0.04 | 0.04 | 61 | 1015.8 |
| 20260905040005 | 55 | 293 | 2.0 | 6.0 | 0.02 | 0.04 | 0.04 | 61 | 1015.2 |
| 20260905034505 | 55 | 336 | 2.0 | 4.0 | 0.02 | 0.04 | 0.04 | 61 | 1015.3 |
| 20260905030005 | 56 | 295 | 2.0 | 6.0 | 0.01 | 0.01 | 0.01 | 56 | 1015.3 |
| 20260905024504 | 56 | 333 | 3.0 | 7.0 | 0.00 | 0.00 | 0.00 | 53 | 1014.8 |
| 20260905023005 | 57 | 333 | 5.0 | 12.0 | 0.00 | 0.00 | 0.00 | 51 | 1014.8 |
| 20260905021505 | 57 | 326 | 3.0 | 10.0 | 0.00 | 0.00 | 0.00 | 48 | 1014.3 |
| 20260905020005 | 57 | 339 | 3.0 | 9.0 | 0.00 | 0.00 | 0.00 | 47 | 1014.4 |
| 20260905013004 | 58 | 344 | 5.0 | 13.0 | 0.00 | 0.00 | 0.00 | 46 | 1014.1 |
| 20260905011504 | 58 | 12 | 5.0 | 11.0 | 0.00 | 0.00 | 0.00 | 45 | 1014.3 |
| 20260905010004 | 59 | 7 | 7.0 | 16.0 | 0.00 | 0.00 | 0.00 | 43 | 1014.1 |
| 20260905003008 | 60 | 329 | 8.0 | 15.0 | 0.00 | 0.00 | 0.00 | 42 | 1013.9 |
| 20260905000008 | 62 | 351 | 9.0 | 20.0 | 0.00 | 0.00 | 0.00 | 36 | 1013.5 |
| 20260904234508 | 65 | 338 | 5.0 | 21.0 | 0.00 | 0.00 | 0.00 | 33 | 1013.0 |
| 20260904233008 | 66 | 314 | 4.0 | 8.0 | 0.00 | 0.00 | 0.00 | 32 | 1012.1 |
| 20260904231508 | 66 | 291 | 5.0 | 8.0 | 0.00 | 0.00 | 0.00 | 32 | 1012.0 |
| 20260904230007 | 66 | 322 | 4.0 | 8.0 | 0.00 | 0.00 | 0.00 | 32 | 1012.0 |
| 20260904224508 | 66 | 317 | 5.0 | 10.0 | 0.00 | 0.00 | 0.00 | 32 | 1011.8 |
| 20260904221507 | 67 | 314 | 3.0 | 6.0 | 0.00 | 0.00 | 0.00 | 31 | 1012.0 |